Location: McFarlands Corners
(41.4117°N, 81.3382°W)
Time: 20:23:36
(UTC+00:00)

Altair - Visible Passes

Search period start: 15 February 2026 00:00
Search period end: 25 February 2026 00:00
Orbit: 1502 x 1682 km, 47.2° (Epoch: 14 February)

Date Brightness Start Highest point End Pass type
(mag) Time Alt. Az. Time Alt. Az. Time Alt. Az.
15 Feb 9.2 08:12:43 17° SE 08:13:49 17° SE 08:19:20 10° E visible
15 Feb 7.8 10:10:46 22° SW 10:16:59 61° SE 10:26:13 10° ENE visible
16 Feb 9.3 07:49:22 15° ESE 07:49:22 15° ESE 07:53:32 10° E visible
16 Feb 7.8 09:47:26 32° SSW 09:51:49 57° SE 10:00:56 10° ENE visible
16 Feb 7.6 11:47:11 10° WSW 11:56:26 72° NNW 12:06:03 10° ENE visible
17 Feb 9.5 07:25:55 12° ESE 07:25:55 12° ESE 07:27:34 10° E visible
17 Feb 7.9 09:23:58 42° S 09:26:39 53° SE 09:35:38 10° ENE visible
17 Feb 7.5 11:22:00 10° WSW 11:31:09 74° NNW 11:40:45 10° ENE visible
18 Feb 7.9 09:00:24 47° SSE 09:01:30 49° SE 09:10:20 10° ENE visible
18 Feb 7.5 10:58:26 18° WSW 11:05:53 77° NNW 11:15:27 10° ENE visible
19 Feb 8.0 08:36:46 45° SE 08:36:46 45° SE 08:45:01 10° ENE visible
19 Feb 7.4 10:34:48 26° WSW 10:40:37 80° NNW 10:50:10 10° ENE visible
20 Feb 8.3 08:13:03 38° ESE 08:13:03 38° ESE 08:19:42 10° ENE visible
20 Feb 7.4 10:11:04 37° WSW 10:15:22 83° NNW 10:24:52 10° ENE visible
21 Feb 8.7 07:49:16 30° E 07:49:16 30° E 07:54:22 10° ENE visible
21 Feb 7.3 09:47:18 51° WSW 09:50:08 86° NNW 09:59:36 10° ENE visible
22 Feb 9.0 07:25:27 23° E 07:25:27 23° E 07:29:01 10° ENE visible
22 Feb 7.2 09:23:28 69° WSW 09:24:54 90° SSE 09:34:19 10° ENE visible
22 Feb 7.7 11:21:28 12° W 11:30:14 62° N 11:39:41 10° ENE visible
23 Feb 9.3 07:01:34 17° E 07:01:34 17° E 07:03:38 10° ENE visible
23 Feb 7.2 08:59:35 86° SSE 08:59:40 86° SSE 09:09:03 10° ENE visible
23 Feb 7.7 10:57:35 18° W 11:04:55 62° N 11:14:21 10° ENE visible
24 Feb 9.6 06:37:40 12° ENE 06:37:40 12° ENE 06:38:14 10° ENE visible
24 Feb 7.5 08:35:40 70° E 08:35:40 70° E 08:43:48 10° ENE visible
24 Feb 7.6 10:33:41 24° W 10:39:37 63° N 10:49:01 10° ENE visible
